Crestview, FL

8:43 PM CST on January 19, 2017 (GMT -0600)
Sikes

Weather History for KCEW - February, 2012

Change the Weather History Date:

Sunday, February 26, 2012

  Actual Average Record
Temperature  
Mean Temperature 52 °F -  
Max Temperature 57 °F 66 °F 80 °F (1981)
Min Temperature 46 °F 43 °F 25 °F (1980)
Degree Days  
Heating Degree Days 14    
Growing Degree Days 2 (Base 50)    
Moisture  
Dew Point 40 °F    
Average Humidity 65    
Maximum Humidity 86    
Minimum Humidity 43    
Precipitation  
Precipitation 0.00 in - - ()
Sea Level Pressure  
Sea Level Pressure 30.33 in    
Wind  
Wind Speed 4 mph (East)    
Max Wind Speed 10 mph    
Max Gust Speed 21 mph    
Visibility 10 miles    
Events      
Averages and records for this station are not official NWS values.
T = Trace of Precipitation, MM = Missing Value Source: NWS Daily Summary

Daily Weather History Graph

Daily Weather History Graph

Search for Another Location

Airport or City:

Trip Planner

Search our weather history database for the weather conditions in past years. The results will help you decide how hot, cold, wet, or windy it might be!

Date:

Astronomy

Feb. 26, 2012 Rise Set
Actual Time 6:16 AM CST 5:42 PM CST
Civil Twilight 5:52 AM CST 6:06 PM CST
Nautical Twilight 5:24 AM CST 6:34 PM CST
Astronomical Twilight 4:56 AM CST 7:02 PM CST
Moon 8:34 AM CST (2/26) 10:13 PM CST (2/26)
Length of Visible Light 12h 14m
Length of Day
11h 25m
Waxing Crescent, 21% of the Moon is Illuminated
Feb 26
Waxing Crescent
Feb 29
First Quarter
Mar 8
Full
Mar 14
Last Quarter
Mar 22
New

Hourly Weather History & Observations

Time (CST) Temp. Dew Point Humidity Pressure Visibility Wind Dir Wind Speed Gust Speed Precip Events Conditions
12:53 AM 46.9 °F 37.0 °F 68% 30.32 in 10.0 mi Calm Calm - N/A   Partly Cloudy
1:53 AM 46.9 °F 36.0 °F 66% 30.29 in 10.0 mi Calm Calm - N/A   Partly Cloudy
2:53 AM 48.0 °F 36.0 °F 63% 30.31 in 10.0 mi Calm Calm - 0.00 in   Overcast
3:53 AM 48.0 °F 36.0 °F 63% 30.32 in 10.0 mi Calm Calm - N/A   Overcast
4:53 AM 48.0 °F 36.0 °F 63% 30.31 in 10.0 mi NNE 3.5 mph - N/A   Overcast
5:53 AM 48.9 °F 36.0 °F 61% 30.32 in 10.0 mi Calm Calm - N/A   Overcast
6:53 AM 48.9 °F 36.0 °F 61% 30.34 in 10.0 mi Calm Calm - N/A   Overcast
7:53 AM 52.0 °F 36.0 °F 54% 30.37 in 10.0 mi East 4.6 mph - N/A   Overcast
8:53 AM 54.0 °F 32.0 °F 43% 30.37 in 10.0 mi East 10.4 mph 20.7 mph N/A   Overcast
9:53 AM 55.0 °F 35.1 °F 47% 30.38 in 10.0 mi ESE 10.4 mph - N/A   Overcast
10:53 AM 55.0 °F 36.0 °F 49% 30.39 in 10.0 mi East 8.1 mph - 0.00 in   Overcast
11:53 AM 55.9 °F 35.1 °F 45% 30.36 in 10.0 mi East 9.2 mph 17.3 mph N/A   Overcast
12:53 PM 57.0 °F 37.0 °F 47% 30.34 in 10.0 mi East 8.1 mph - N/A   Overcast
1:53 PM 55.9 °F 37.9 °F 51% 30.33 in 10.0 mi East 8.1 mph - N/A   Overcast
2:53 PM 55.0 °F 39.9 °F 57% 30.32 in 10.0 mi ENE 4.6 mph - N/A   Overcast
3:53 PM 54.0 °F 39.9 °F 59% 30.32 in 10.0 mi ENE 5.8 mph - 0.00 in   Overcast
4:53 PM 52.0 °F 41.0 °F 66% 30.31 in 10.0 mi East 5.8 mph - N/A   Overcast
5:53 PM 51.1 °F 43.0 °F 74% 30.32 in 10.0 mi ENE 5.8 mph - N/A   Overcast
6:53 PM 51.1 °F 44.1 °F 77% 30.32 in 10.0 mi ENE 6.9 mph - N/A   Overcast
7:53 PM 50.0 °F 45.0 °F 83% 30.33 in 10.0 mi East 6.9 mph - N/A   Overcast
8:23 PM 50.0 °F 44.6 °F 82% 30.34 in 10.0 mi East 5.8 mph - N/A   Overcast
8:53 PM 50.0 °F 45.0 °F 83% 30.33 in 10.0 mi ENE 5.8 mph - N/A   Overcast
9:13 PM 50.0 °F 44.6 °F 82% 30.33 in 10.0 mi East 4.6 mph - N/A   Overcast
9:53 PM 50.0 °F 46.0 °F 86% 30.33 in 10.0 mi ENE 5.8 mph - N/A   Overcast
10:53 PM 51.1 °F 46.0 °F 83% 30.32 in 10.0 mi ENE 4.6 mph - N/A   Overcast
11:53 PM 51.1 °F 46.9 °F 86% 30.30 in 10.0 mi East 4.6 mph - N/A   Overcast